Change the Weather History Date:

Friday, November 16, 2012

  Actual Average Record
Temperature  
Mean Temperature 44 °F -  
Max Temperature 50 °F - - ()
Min Temperature 40 °F - - ()
Degree Days  
Heating Degree Days 20    
Moisture  
Dew Point 46 °F    
Average Humidity 95    
Maximum Humidity 99    
Minimum Humidity 83    
Precipitation  
Precipitation 0.98 in - - ()
Sea Level Pressure  
Sea Level Pressure 29.67 in    
Wind  
Wind Speed 16 mph ()    
Max Wind Speed 28 mph    
Max Gust Speed 45 mph    
T = Trace of Precipitation, MM = Missing Value Source: Averaged Metar Reports

Daily Weather History Graph

Daily Weather History Graph

Search for Another Location

Airport or City:

Trip Planner

Search our weather history database for the weather conditions in past years. The results will help you decide how hot, cold, wet, or windy it might be!

Date:

Astronomy

Nov. 16, 2012 Rise Set
Actual Time 7:39 AM PST 4:42 PM PST
Civil Twilight 7:04 AM PST 5:17 PM PST
Nautical Twilight 6:25 AM PST 5:56 PM PST
Astronomical Twilight 5:47 AM PST 6:33 PM PST
Moon 10:44 AM PST (11/16) 7:45 PM PST (11/16)
Length of Visible Light 10h 13m
Length of Day
9h 02m
Waxing Crescent, 12% of the Moon is Illuminated
Nov 16
Waxing Crescent
Nov 20
First Quarter
Nov 28
Full
Dec 6
Last Quarter
Dec 13
New

Hourly Weather History & Observations

Time (PST) Temp. Windchill Dew Point Humidity Pressure Visibility Wind Dir Wind Speed Gust Speed Precip Events Conditions
12:00 AM 43.3 °F 38.1 °F 43.2 °F 99% 29.88 in - East 9.2 mph - N/A   Unknown
1:00 AM 44 °F - 44 °F 98% 29.86 in - East 9.2 mph - -  
1:00 AM 44.4 °F 39.5 °F 43.7 °F 97% 29.86 in - East 9.2 mph - N/A   Unknown
2:00 AM 46.0 °F 39.3 °F 44.2 °F 93% 29.84 in - East 16.1 mph 25.3 mph N/A   Unknown
3:00 AM 46.0 °F 38.8 °F 43.7 °F 92% 29.83 in - East 18.4 mph 31.1 mph N/A   Unknown
4:00 AM 46 °F - 44 °F 89% 29.80 in - East 16.1 mph - -  
4:00 AM 45.9 °F 39.1 °F 43.7 °F 92% 29.80 in - East 16.1 mph 28.8 mph N/A   Unknown
5:00 AM 46.2 °F 39.5 °F 43.7 °F 91% 29.78 in - East 16.1 mph 27.6 mph N/A   Unknown
6:00 AM 46.2 °F 39.3 °F 43.7 °F 91% 29.77 in - East 17.3 mph 28.8 mph N/A   Unknown
7:00 AM 47 °F - 44 °F 83% 29.75 in - East 20.7 mph - -  
7:00 AM 46.8 °F - 43.5 °F 88% 29.75 in - East 20.7 mph 32.2 mph N/A   Unknown
8:00 AM 46.2 °F 38.7 °F 43.9 °F 92% 29.74 in - East 19.6 mph 33.4 mph 0.01 in   Unknown
9:00 AM 45.9 °F 38.3 °F 44.2 °F 94% 29.73 in - East 19.6 mph 32.2 mph 0.05 in   Unknown
10:00 AM 46 °F - 45 °F 94% 29.73 in - East 24.2 mph - -  
10:00 AM 46.0 °F 37.6 °F 44.8 °F 95% 29.73 in - East 24.2 mph 36.8 mph 0.07 in   Unknown
11:00 AM 46.2 °F 38.5 °F 45.3 °F 97% 29.72 in - East 20.7 mph 31.1 mph 0.11 in   Unknown
12:00 PM 47.3 °F - 46.6 °F 97% 29.70 in - East 21.9 mph 34.5 mph 0.06 in   Unknown
1:00 PM 47 °F - 46 °F 97% 29.67 in - East 20.7 mph - -  
1:00 PM 47.1 °F - 46.4 °F 97% 29.67 in - East 20.7 mph 34.5 mph 0.12 in   Unknown
2:00 PM 48.4 °F - 47.8 °F 98% 29.65 in - East 19.6 mph 32.2 mph 0.27 in   Unknown
3:00 PM 48.4 °F - 47.8 °F 98% 29.63 in - ESE 25.3 mph 40.3 mph 0.17 in   Unknown
4:00 PM 47 °F - 46 °F 96% 29.62 in - East 20.7 mph - -  
4:00 PM 46.8 °F - 46.2 °F 98% 29.62 in - East 20.7 mph 39.1 mph 0.27 in   Unknown
5:00 PM 46.2 °F 38.7 °F 45.5 °F 97% 29.59 in - East 19.6 mph 35.7 mph 0.12 in   Unknown
6:00 PM 46.8 °F - 46.0 °F 97% 29.54 in - East 24.2 mph 36.8 mph 0.05 in   Unknown
7:00 PM 47 °F - 46 °F 97% 29.50 in - East 24.2 mph - -  
7:00 PM 47.3 °F - 46.4 °F 97% 29.50 in - East 24.2 mph 41.4 mph 0.02 in   Unknown
8:00 PM 47.7 °F - 46.6 °F 96% 29.48 in - East 24.2 mph 41.4 mph 0.09 in   Unknown
9:00 PM 48.7 °F - 47.7 °F 96% 29.46 in - East 25.3 mph 43.7 mph 0.10 in   Unknown
10:00 PM 49 °F - 49 °F 99% 29.44 in - East 27.6 mph - -  
10:00 PM 49.5 °F - 48.7 °F 97% 29.44 in - East 27.6 mph 44.9 mph 0.17 in   Unknown
11:00 PM 50.7 °F - 50.0 °F 97% 29.41 in - ESE 23.0 mph 36.8 mph 0.06 in   Unknown